Theta_e
310 311 311 312 312 312 313 313 313 313 313 311 311 311 312 312 311 310 318 318 318 315 309 319 318 316 315 314 314 316 315 317 319 321 320 321 318 322 323 323 324 330 352 355 357
309 311 311 312 312 312 312 313 313 313 312 310 311 311 312 312 311 315 319 319 314 310 313 319 318 315 316 315 314 313 314 316 318 319 319 320 320 321 321 322 323 356 355 355 355
306 308 311 311 312 312 312 313 313 313 311 310 311 311 311 312 322 322 318 313 311 313 311 318 319 316 314 315 315 314 313 315 317 319 320 319 319 320 320 321 322 352 356 356 355
310 306 308 311 311 312 312 312 313 314 310 310 310 311 317 319 321 321 313 311 312 315 317 319 318 318 313 312 315 313 314 315 316 318 318 318 319 319 320 321 322 340 351 355 355
310 309 305 310 311 312 312 312 315 312 310 309 312 316 319 321 317 314 312 313 314 315 317 317 318 318 315 315 315 312 313 315 316 317 318 319 318 319 319 321 322 323 348 351 353
309 309 306 310 311 311 311 312 315 311 311 309 313 316 319 319 314 314 314 315 315 314 315 316 318 318 317 315 314 316 315 315 315 315 316 315 317 319 320 321 321 321 340 349 353
307 309 307 310 310 311 310 312 316 312 311 311 310 316 319 317 314 314 314 315 314 315 313 313 314 317 317 315 316 316 315 314 314 314 313 316 315 319 320 320 320 321 322 347 351
307 309 308 310 310 310 311 315 316 316 312 314 318 320 321 315 316 315 315 315 315 314 313 313 314 315 316 315 315 314 314 313 313 313 314 315 314 317 320 320 320 320 321 347 347
306 309 309 310 309 313 315 317 316 317 315 313 316 319 320 316 316 317 315 315 314 314 314 314 314 315 314 313 313 314 315 315 315 315 313 314 314 316 318 320 320 320 321 322 343
305 309 309 309 313 316 318 319 316 318 319 320 318 318 319 317 317 317 316 315 315 314 314 315 315 313 312 311 314 316 319 319 319 318 314 312 313 315 316 319 320 320 320 321 328
307 308 309 309 314 316 318 320 316 320 317 318 319 319 318 317 317 318 317 315 315 315 313 315 314 313 312 315 316 316 317 320 319 319 318 318 313 314 316 317 319 320 321 321 323
308 308 309 309 314 316 317 317 315 316 317 318 319 317 318 317 318 319 317 316 316 315 315 313 315 314 315 315 316 316 317 318 319 318 319 318 318 317 316 317 319 320 321 321 327
308 307 309 311 315 319 317 315 315 317 318 320 320 318 318 317 318 319 319 318 316 316 315 314 315 316 315 315 315 314 315 314 315 317 317 317 317 317 316 317 317 319 321 322 327
307 307 309 313 317 319 314 315 316 317 321 324 319 319 318 318 320 319 318 317 315 315 315 315 315 316 316 315 314 314 312 312 315 316 316 317 318 315 316 316 317 318 321 323 325
312 307 309 314 315 314 314 314 320 319 319 316 316 315 315 318 319 319 318 317 317 317 317 318 316 314 316 317 316 315 313 313 314 313 312 314 318 316 315 317 317 318 321 323 323
313 308 310 313 316 313 313 315 320 323 324 316 314 314 316 318 318 318 318 318 317 318 318 319 317 316 315 315 315 315 313 313 312 312 313 312 314 315 317 316 317 319 322 323 322
313 310 314 313 315 314 316 320 322 323 316 316 315 315 316 318 318 319 319 319 319 321 320 318 318 317 316 316 315 314 314 311 312 312 313 313 315 315 317 317 318 318 320 323 323
313 317 318 315 314 315 318 320 326 317 316 314 315 317 317 316 317 317 317 317 318 318 320 319 319 318 318 316 314 314 315 315 319 319 317 316 319 316 316 316 317 319 319 323 324
316 319 320 315 313 315 319 322 318 316 315 315 316 316 315 315 316 315 316 318 318 318 321 321 317 316 316 316 316 316 315 314 318 317 318 317 317 319 317 317 317 319 319 322 324
316 319 321 317 315 317 318 322 316 318 315 316 316 316 314 315 315 315 318 318 318 316 315 317 319 316 317 315 316 315 316 318 315 320 323 320 319 317 318 318 320 319 319 321 339
316 320 318 315 316 318 317 316 317 317 315 316 316 315 315 315 314 316 319 317 317 316 315 316 317 317 316 316 314 315 316 315 316 318 321 321 317 317 317 322 321 320 320 322 348
315 319 316 316 316 318 316 317 317 318 317 318 315 315 315 314 315 318 318 318 317 316 317 315 318 318 317 315 316 315 313 314 314 316 316 317 317 316 316 319 321 321 322 322 337
315 317 316 315 318 318 317 318 317 318 318 318 318 317 316 315 315 316 318 318 317 315 316 316 318 318 317 316 315 317 316 314 314 314 316 316 316 316 316 317 322 322 323 324 325
316 317 316 315 315 317 318 318 318 315 316 315 316 317 315 315 314 316 318 318 317 316 315 314 316 318 319 320 318 318 318 318 314 315 314 315 316 316 316 318 320 321 321 327 329
317 317 316 314 314 314 316 318 315 315 314 314 316 318 317 314 314 316 316 317 316 316 315 316 317 316 316 316 317 318 319 318 319 318 317 315 315 316 316 318 318 321 321 337 344
315 315 314 314 315 317 316 316 315 314 314 316 317 317 318 314 316 315 316 317 320 316 315 314 314 316 317 316 316 318 317 318 318 318 319 319 316 316 315 317 318 321 319 322 337
314 313 313 314 316 316 316 314 314 313 314 313 316 318 316 317 316 316 316 317 320 318 316 315 315 317 318 317 317 318 317 318 318 318 319 319 317 316 315 316 317 317 319 320 325
Wind_Speed
18 17 16 16 18 19 20 22 23 23 20 16 15 14 12 11 10 7 9 8 12 17 11 4 7 3 6 10 15 18 6 8 11 14 12 32 10 34 30 29 31 16 25 39 38
19 18 17 17 18 20 22 23 25 24 20 18 15 12 8 7 9 4 6 8 11 10 3 5 13 13 10 12 7 5 4 10 11 17 16 25 22 29 26 30 20 32 45 44 47
22 18 17 17 18 20 22 24 25 24 18 17 13 10 8 5 9 4 5 7 9 9 7 4 8 12 12 17 16 14 11 10 20 26 30 26 27 29 19 15 28 35 40 46 43
27 21 16 16 17 19 22 24 24 21 16 16 11 7 8 7 5 4 12 10 7 5 10 11 10 14 5 6 18 8 19 20 24 32 29 21 31 27 22 28 33 18 42 45 46
30 25 17 14 16 19 21 24 23 15 14 14 9 9 7 6 4 9 10 10 9 11 10 14 14 17 7 9 16 9 8 20 26 23 29 31 25 25 30 35 37 27 36 40 40
33 26 17 12 15 18 21 21 20 14 13 11 7 8 8 3 5 9 12 10 12 11 11 13 14 15 13 12 9 19 21 20 25 19 19 15 22 22 37 34 37 33 25 39 41
35 26 17 13 14 18 20 18 16 13 13 10 7 9 5 4 7 6 8 10 12 7 12 13 15 13 14 9 16 21 13 14 15 15 10 23 20 19 30 35 34 31 18 34 40
35 25 17 15 16 18 19 14 14 13 10 8 9 6 6 8 9 4 4 10 11 5 10 11 11 13 12 15 18 11 10 6 7 10 20 12 16 20 28 28 30 30 22 28 30
36 23 15 15 18 18 14 15 15 9 6 6 6 8 9 9 7 11 8 8 10 11 5 7 8 7 13 6 6 6 8 12 15 14 11 9 16 24 29 28 27 27 27 20 30
38 23 14 14 15 16 15 17 18 2 6 6 4 7 6 5 13 11 4 6 8 11 14 10 6 4 4 4 4 5 11 12 17 12 10 14 17 20 31 29 29 28 28 33 17
38 23 14 13 12 13 13 12 15 4 7 11 16 13 10 10 12 11 6 7 11 15 9 13 4 6 10 7 3 7 7 12 24 21 12 18 19 21 21 29 30 28 27 31 24
39 23 14 14 10 14 12 14 14 10 12 10 17 15 13 7 10 7 6 8 12 9 12 7 11 14 8 9 6 7 10 15 23 12 11 13 12 9 18 20 30 30 28 29 17
39 22 14 14 7 13 9 14 12 11 4 12 15 7 10 6 5 13 10 13 12 12 12 11 15 18 9 8 10 11 11 12 16 16 10 16 9 8 10 28 36 36 37 32 24
42 23 12 11 6 10 14 11 16 12 1 5 9 5 7 5 2 11 5 9 7 12 13 11 14 18 14 10 8 13 9 14 13 14 8 4 5 7 10 22 25 34 35 32 25
44 22 10 12 11 10 16 17 14 4 4 9 11 7 22 4 6 4 5 8 9 12 11 18 17 17 17 13 12 14 5 5 11 15 12 7 3 10 12 15 24 24 36 33 33
42 18 10 11 9 20 17 12 10 3 2 6 14 14 11 11 10 18 11 10 4 7 15 19 28 16 16 16 8 8 7 5 7 9 10 10 6 11 10 12 18 16 29 27 31
39 9 9 13 9 19 16 12 3 0 14 9 18 18 16 6 5 7 7 7 6 7 9 8 14 15 22 18 16 6 6 3 3 3 9 1 7 14 8 15 18 20 25 33 30
28 6 8 13 16 15 16 4 3 15 11 15 15 18 8 17 10 11 12 8 7 7 8 5 3 2 3 6 8 8 5 2 4 3 10 12 8 18 20 26 30 32 35 32 27
19 6 5 13 11 14 15 3 4 9 13 13 13 9 10 17 9 8 11 4 7 7 5 5 5 16 13 6 13 5 3 3 2 7 4 5 8 18 13 21 24 31 37 30 23
22 11 3 13 16 13 2 5 14 9 8 9 10 10 14 16 12 14 7 4 11 4 8 5 8 9 4 1 5 8 7 5 3 2 4 9 8 11 2 19 24 30 28 32 28
17 9 5 24 11 8 2 6 14 18 13 5 10 9 11 9 13 15 5 10 4 9 8 10 4 8 10 4 7 3 4 2 4 4 1 4 6 11 10 7 4 21 35 32 39
16 5 15 21 6 5 4 9 20 16 17 6 6 7 8 11 12 6 7 4 10 1 7 4 4 5 9 14 11 8 8 10 4 4 5 7 15 13 17 12 25 21 39 39 32
22 7 13 19 4 4 8 13 19 12 8 7 5 9 9 9 6 10 3 11 4 6 4 4 3 5 7 4 4 2 6 8 6 3 9 10 9 7 13 15 16 24 25 28 35
10 4 11 15 21 8 11 13 13 17 11 16 12 10 7 7 9 9 6 2 4 7 12 3 4 7 4 7 3 6 17 16 9 7 5 15 20 16 15 8 12 22 33 24 12
8 6 11 5 12 19 16 11 16 14 11 17 7 9 11 8 11 8 8 5 3 5 5 4 5 9 14 20 19 18 16 18 17 21 16 9 16 9 17 11 7 20 33 15 13
8 8 11 23 21 15 8 7 13 17 13 8 10 19 14 8 6 15 13 10 4 8 8 4 5 6 15 16 18 21 19 19 20 22 31 14 17 14 23 29 11 16 17 24 10
18 15 13 10 13 10 5 18 19 17 7 27 21 15 12 6 19 24 28 27 10 9 10 4 3 3 5 9 9 9 13 19 21 23 19 20 10 12 13 15 2 6 6 14 12
Wind_Direction
13 13 12 13 10 5 3 360 356 353 346 339 333 325 300 294 294 298 324 283 293 310 316 13 326 308 250 253 260 256 250 263 262 268 275 288 304 294 295 271 267 295 154 149 145
2 1 3 4 4 3 1 356 353 351 348 349 349 340 333 303 311 311 299 299 309 332 265 355 349 344 269 222 224 228 244 246 259 276 282 289 300 302 328 317 269 97 134 146 151
3 351 352 354 358 359 358 354 351 350 352 358 358 358 6 11 67 0 353 315 321 345 313 343 321 310 302 300 253 224 241 263 272 266 270 278 293 311 322 308 309 135 141 149 156
2 354 341 346 352 355 356 353 352 352 1 5 4 7 26 44 46 331 327 324 322 336 355 337 300 274 258 253 275 268 246 239 251 269 277 283 298 294 302 289 292 197 153 157 161
1 356 346 342 349 353 353 353 355 3 8 10 30 40 16 2 354 334 3 18 19 355 324 301 316 308 290 305 316 282 275 275 259 263 272 278 282 286 289 297 298 297 164 165 168
0 356 354 349 351 352 353 353 359 8 4 9 26 0 29 327 346 334 353 353 330 316 316 304 317 307 311 306 302 299 303 297 299 286 269 285 283 284 278 289 295 292 182 175 173
0 358 358 357 354 351 349 350 354 355 359 5 5 338 344 314 336 316 310 317 304 302 308 298 297 339 313 318 306 319 308 290 282 288 281 267 277 265 271 282 292 293 311 178 181
1 0 360 359 355 351 350 350 348 347 353 14 23 352 295 269 341 341 329 318 342 304 310 297 294 313 299 286 291 295 293 294 289 264 270 256 266 271 275 273 284 290 290 170 183
0 360 0 358 356 1 1 351 347 334 352 316 344 359 300 307 337 338 318 316 311 295 287 296 285 280 281 283 293 256 275 274 272 247 246 216 258 269 269 275 272 276 279 267 186
359 358 0 0 5 11 6 351 348 353 2 332 270 307 281 339 338 324 301 314 308 304 285 222 236 222 260 212 260 327 324 309 296 286 265 240 240 254 263 269 266 269 266 271 214
358 357 356 1 0 354 359 359 356 8 311 264 279 257 304 316 326 305 297 311 292 273 255 233 202 247 259 159 207 265 250 268 287 285 313 297 235 243 244 250 261 262 254 259 261
358 356 356 356 354 337 345 3 355 315 301 285 264 259 283 278 306 4 291 273 296 286 287 304 224 236 246 142 171 235 258 261 249 270 291 311 307 288 234 242 250 254 256 244 235
357 354 356 3 9 359 359 351 339 305 270 293 212 243 262 238 270 314 311 289 309 304 291 290 288 299 264 233 240 240 242 269 279 295 249 272 273 278 245 227 246 255 252 242 211
353 348 352 5 22 1 357 331 327 310 311 209 187 224 274 187 27 313 287 318 309 298 303 282 302 299 314 268 247 277 252 268 320 307 271 187 278 297 291 216 233 245 246 237 195
352 347 346 354 347 358 346 327 350 11 49 353 54 356 338 351 287 248 239 281 293 307 318 284 297 300 292 287 300 278 268 262 276 292 304 262 212 258 283 250 223 232 234 231 218
351 349 12 354 347 350 329 323 317 18 292 348 15 350 327 26 337 350 336 305 277 313 272 267 280 270 269 281 250 279 278 289 283 281 274 255 203 262 254 254 228 224 230 232 199
349 356 18 5 342 344 344 348 354 64 360 6 349 337 308 16 336 347 353 320 354 322 316 322 274 294 257 260 263 261 341 311 300 242 238 42 258 238 222 262 236 226 234 232 203
354 34 6 1 4 341 342 335 273 358 339 354 342 313 352 353 343 4 335 324 44 342 302 333 319 222 16 279 265 230 144 164 312 325 302 308 245 249 221 241 260 224 228 226 224
357 353 23 3 359 328 347 346 345 348 1 349 334 342 329 332 332 354 344 6 18 26 338 310 258 317 264 233 262 245 218 200 301 235 286 247 284 289 230 234 234 230 221 224 202
353 345 240 358 338 340 22 294 353 351 342 353 319 324 334 321 353 340 343 294 344 36 50 276 289 280 334 238 246 192 160 77 247 252 246 298 277 248 201 250 243 195 216 216 170
356 338 337 355 339 345 50 341 328 324 346 296 314 314 317 327 332 321 283 338 355 333 359 281 240 288 321 229 252 158 139 217 151 281 229 293 280 312 9 293 263 197 209 207 168
0 326 3 344 14 347 8 330 310 341 319 359 343 332 308 310 297 303 275 292 261 278 314 280 278 284 266 275 265 250 247 185 162 241 256 252 280 311 336 348 17 214 195 209 175
340 290 323 12 24 326 324 314 311 323 353 352 312 300 295 296 327 298 258 275 220 172 212 359 245 294 307 290 261 285 268 271 236 181 259 276 270 292 308 341 38 14 8 201 193
337 320 342 339 358 343 312 301 314 352 330 332 316 316 325 321 310 282 296 222 203 213 210 184 252 260 267 297 307 314 303 303 293 250 237 253 280 300 311 358 24 22 3 357 248
1 356 335 309 321 306 298 290 340 330 342 334 300 314 316 305 294 291 296 316 106 195 192 200 261 245 273 282 286 282 268 278 279 281 260 253 253 279 295 329 44 31 13 19 133
9 347 313 296 291 301 316 345 311 334 325 311 324 304 298 276 294 320 313 298 228 171 184 196 254 241 252 244 261 276 280 284 270 261 280 284 266 288 293 297 37 54 10 39 358
338 322 314 283 304 315 316 328 309 323 306 318 300 302 302 322 315 302 291 278 213 175 207 206 228 244 259 258 243 256 262 266 263 265 262 267 271 273 275 282 32 360 64 51 13